Regional Weather Roundup
Issued by NWS

Home | Current Version | Previous Version | Graphics & Text | Print | Product List | Glossary On
Versions: 1 2 3 4 5 6 7 8 9 10 11 12 13 14 15 16 17 18 19 20 21 22 23 24 25 26 27 28 29 30 31 32 33 34 35 36 37 38 39 40 41 42 43 44 45 46 47 48 49 50
000
ASUS45 KCYS 280210
RWRWY

WYOMING REGIONAL WEATHER ROUNDUP
NATIONAL WEATHER SERVICE CHEYENNE WY
800 PM MDT WED AUG 27 2014

NOTE:  "FAIR" INDICATES FEW OR NO CLOUDS BELOW 12,000 FEET
WITH NO SIGNIFICANT WEATHER AND/OR OBSTRUCTIONS TO VISIBILITY.

WYZ001-280300-
YELLOWSTONE NATIONAL PARK

CITY           SKY/WX    TMP DP  RH WIND       PRES   REMARKS
LK YELLOWSTONE   N/A     59  40  49 VRB6      30.34R
W YELLOWSTONE  NOT AVBL

$$
WYZ002>013-054>058-071-098>099-280300-
NORTHERN WYOMING

CITY           SKY/WX    TMP DP  RH WIND       PRES   REMARKS
JACKSON        CLEAR     64  39  39 CALM      30.24R
CODY           MOCLDY    70  52  52 SE6       30.13R
GREYBULL       MOCLDY    72  53  51 S7        30.06R
WORLAND        CLOUDY    67  55  65 CALM      30.08R
SHERIDAN       CLOUDY    73  54  51 SE6       30.05S
BUFFALO        CLOUDY    60  56  86 S17       30.15R
GILLETTE       CLOUDY    60  57  89 S13       30.09F
HULETT         MOCLDY    63  55  77 MISG      30.12
NEWCASTLE      LGT RAIN  59  59 100 SW3       30.13

$$
WYZ014>020-022>026-101>103-280300-
CENTRAL WYOMING

CITY           SKY/WX    TMP DP  RH WIND       PRES   REMARKS
BIG PINEY      CLOUDY    54  49  83 SE5       30.32R
PINEDALE       CLOUDY    52  52 100 CALM      30.32S
DUBOIS         FAIR      54  45  71 W3        30.27R
LANDER         CLOUDY    60  52  74 CALM      30.17S
RIVERTON       CLOUDY    59  53  80 CALM      30.19R
CASPER         CLOUDY    61  54  77 NW7       30.18R
DOUGLAS        CLOUDY    63  58  83 N8        30.16R

$$
WYZ021-027>030-104>119-280300-
SOUTHERN WYOMING

CITY           SKY/WX    TMP DP  RH WIND       PRES   REMARKS
EVANSTON       RAIN      53  49  86 SE8       30.36R
KEMMERER       CLOUDY    52  48  87 S12       30.33S
FORT BRIDGER   CLOUDY    52  51  97 S9        30.37S
ROCK SPRINGS   CLOUDY    51  48  89 SW13      30.29S
DIXON          CLOUDY    55  51  86 SW5       30.31R
RAWLINS        CLOUDY    56  46  69 SW12G20   30.26R
SARATOGA       FAIR      52  45  76 W14       30.29R
LARAMIE        PTCLDY    55  45  68 W8        30.24F
CHEYENNE       MOCLDY    58  52  80 N3        30.18R
TORRINGTON     MOCLDY    64  61  90 W3        30.08F
PINE BLUFFS    MOCLDY    59  54  82 N9        30.13F

$$



USA.gov is the U.S. government's official web portal to all federal, state and local government web resources and services.